User: anonymous   Login
Location: Unspecified
(0.0000°N, 0.0000°E)
Time: 10:37:07
(UTC+00:00)
Language:

UFO F7 - Orbit

View from above orbital plane
View from above orbital plane
View from above satellite
View from above satellite

Ground track
Ground track

The orbit data is extracted from the following two-line orbital elements,

1 23967U 96042A   18144.63110318 0.00000000  00000-0  00000-0 0    02
2 23967   8.6846  30.3203 0007696 348.1509  11.8660  1.00163952    09
Epoch (UTC): 24 May 2018 15:08:47
Eccentricity: 0.0007696
inclination: 8.6846°
perigee height: 35784 km
apogee height: 35849 km
right ascension of ascending node: 30.3203°
argument of perigee: 348.1509°
revolutions per day: 1.00163952
mean anomaly at epoch: 11.8660°
orbit number at epoch: 0

The dashed part of the orbit path shows where the satellite is in the earth's shadow,  

DLR